Flag for U.S.A. Weather past 2 weeks in Los Angeles, California, U.S.A.

Now
60 °F

Clear.


Feels Like: 60 °F
Forecast: 57 / 70 °F
Wind: No wind

Location: Los Angeles / USC Campus Downtown


UV Index: 0 (Low)

Visibility: 10 mi


Pressure: 29.91 "Hg

Humidity: 75%

Dew point: 52 °F

Location of Los AngelesLocation

Historic Weather in Los Angeles

°F

Los Angeles temperature yesterday

Maximum temperature yesterday: 77 °F (at 12:47 PM)
Minimum temperature yesterday: 55 °F (at 4:47 AM)
Average temperature yesterday: 65 °F

Past Weeks' High & Low Weather Summary

 TemperatureHumidityPressure
High79 °F (Apr 10, 11:47 AM)96% (Apr 10, 6:47 AM)30.06 "Hg (Apr 10, 6:47 AM)
Low50 °F (Apr 10, 5:47 AM)25% (Apr 11, 11:47 AM)29.78 "Hg (Apr 16, 4:47 PM)
Average63 °F67%29.94 "Hg
* Reported Apr 10 12:47 AM — Apr 25 12:47 AM, Los Angeles, Weather by CustomWeather, © 2014

Note: Actual official high and low records may vary slightly from our data, if they occured in-between our weather recording intervals... More about our weather records

Advertising

Historic Weather Conditions — Data for Previous 24 hours

 ConditionsComfort  
Time TempWeatherWind HumidityBarometerVisibility
12:47 AM
Apr 25
60 °FClear.No wind75%29.91 "Hg10 mi
11:47 PM
Apr 24
61 °FClear.No wind72%29.92 "Hg10 mi
10:47 PM61 °FClear.No wind75%29.92 "Hg10 mi
9:47 PM62 °FClear.No wind70%29.93 "Hg10 mi
8:47 PM63 °FClear.No wind65%29.92 "Hg10 mi
7:47 PM65 °FSunny.No wind54%29.90 "Hg10 mi
6:47 PM67 °FSunny.3 mph45%29.90 "Hg10 mi
5:47 PM69 °FSunny.7 mph44%29.90 "Hg10 mi
4:47 PM72 °FSunny.5 mph34%29.89 "Hg10 mi
3:47 PM73 °FSunny.6 mph40%29.90 "Hg10 mi
2:47 PM73 °FSunny.3 mph41%29.92 "Hg10 mi
1:47 PM75 °FSunny.N/A42%29.93 "Hg10 mi
12:47 PM77 °FSunny.7 mph35%29.93 "Hg10 mi
11:47 AM76 °FSunny.3 mph31%29.96 "Hg10 mi
10:47 AM74 °FSunny.No wind37%29.98 "Hg10 mi
9:47 AM70 °FSunny.3 mph46%29.98 "Hg10 mi
8:47 AM66 °FSunny.No wind56%29.98 "Hg10 mi
7:47 AM63 °FSunny.No wind60%29.98 "Hg10 mi
6:47 AM58 °FClear.No wind75%29.96 "Hg10 mi
5:47 AM56 °FClear.No wind77%29.94 "Hg10 mi
4:47 AM55 °FClear.No wind80%29.93 "Hg10 mi
3:47 AM57 °FClear.No wind78%29.92 "Hg10 mi
2:47 AM57 °FClear.No wind78%29.93 "Hg10 mi
Weather by CustomWeather, © 2014

See weather overview